Find STARLINK-38034

NORAD ID: 799501203 Int'l Des: 2026-160AB Constellation: starlink operational

Aktuelle Ansicht

3D-Globus wird geladen...

About STARLINK-38034

STARLINK-38034 (NORAD 799501203) is a starlink constellation satellite launched Jul 9, 2026

Über STARLINK-38034

Beschreibung wird geladen...

Nächste Überflüge

Passes for default location (London). Set your location on the main map for personalized predictions.

Höhenverlauf

Loading altitude history...

Zweizeiliger Elementsatz

1 99999C 2026160AB 26195.38451389 .00499520 00000-0 618840-4 0 1959
2 99999 70.0019 28.6285 0010388 257.9525 295.4661 16.07201065 12
Epoch: 14. Juli 2026 • Age: 7 hours